LA8QT Lodingen NO current weather conditions

sailwx.info

Wind from 030 at 2 knots

Air temperature -2.2° C
Dewpoint -7.7° C

Last reported at 2014-Dec-22 01:50 UTC.
Time now 2014-Dec-22 02:06 UTC

Location: N 68°28' E 016°04'.
View on Google Maps.

See reports from other nearby stations

  
Tides and Currents Weather Stations Pressure Air Temp Water Temp Dewpoint Dewpoint Depression Visibility Wind Speed Wind Dir Waves Ship Positions
date/time (UTC)wind fromknots sea level pressurealtimeterstation pressurevisibilityair tempwater tempwave heightnotes
2014-Dec-22 01:50 030 2 -2.2
2014-Dec-22 01:35 082 4 -2.2
2014-Dec-22 01:20 089 -1.7
2014-Dec-22 01:05 357 4 -1.7
2014-Dec-22 00:50 010 -1.7
2014-Dec-22 00:35 010 3 -1.7
2014-Dec-22 00:20 067 0 -1.7
2014-Dec-22 00:05 024 5 -2.2
2014-Dec-21 23:50 002 4 -2.2
2014-Dec-21 23:35 357 6 -2.2
2014-Dec-21 23:20 026 6 -2.8
2014-Dec-21 23:05 022 6 -2.2
2014-Dec-21 22:50 014 3 -2.8
2014-Dec-21 22:35 017 5 -2.8
2014-Dec-21 22:20 040 1 -2.8
2014-Dec-21 22:05 044 4 -2.8
2014-Dec-21 21:50 039 5 -2.8
2014-Dec-21 21:35 044 3 -2.2
2014-Dec-21 21:20 038 5 -2.8
2014-Dec-21 21:04 029 4 -3.3
2014-Dec-21 20:49 029 7 -3.3
2014-Dec-21 20:34 035 5 -3.3
2014-Dec-21 20:19 036 6 -2.8
2014-Dec-21 20:04 031 1 -3.3
2014-Dec-21 19:49 025 7 -3.3
2014-Dec-21 19:34 040 5 -3.3
2014-Dec-21 19:19 039 6 -3.3
2014-Dec-21 19:04 040 6 -3.3
2014-Dec-21 18:49 043 6 -3.3
2014-Dec-21 18:34 056 5 -3.3
2014-Dec-21 18:19 055 4 -2.8
2014-Dec-21 18:04 053 4 -3.3
2014-Dec-21 17:49 053 5 -2.8
2014-Dec-21 17:34 047 5 -2.8
2014-Dec-21 17:19 049 6 -2.8
2014-Dec-21 17:04 039 4 -2.8
2014-Dec-21 16:49 037 4 -3.3
2014-Dec-21 16:34 037 3 -2.8
2014-Dec-21 16:19 037 2 -2.8
2014-Dec-21 16:04 037 2 -2.8
2014-Dec-21 15:49 037 1 -2.8
2014-Dec-21 15:34 037 2 -2.8
2014-Dec-21 15:19 037 3 -2.8
2014-Dec-21 15:04 037 4 -2.8
2014-Dec-21 14:49 037 4 -2.8
2014-Dec-21 14:34 037 4 -2.8
2014-Dec-21 14:19 037 2 -2.8
2014-Dec-21 14:04 037 3 -3.3
2014-Dec-21 13:49 037 0 -3.3
2014-Dec-21 13:34 037 0 -3.3
2014-Dec-21 13:19 037 1 -3.9
2014-Dec-21 13:04 037 1 -3.9
2014-Dec-21 12:49 037 1 -3.9
2014-Dec-21 12:34 037 2 -4.4
2014-Dec-21 12:19 037 1 -4.4
2014-Dec-21 12:04 037 2 -3.9
2014-Dec-21 11:49 037 2 -4.4
2014-Dec-21 11:34 037 2 -4.4
2014-Dec-21 11:19 037 1 -4.4
2014-Dec-21 11:04 037 1 -4.4
2014-Dec-21 10:49 037 1 -3.9
2014-Dec-21 10:34 037 0 -3.9
2014-Dec-21 10:19 037 -3.9
2014-Dec-21 10:04 037 0 -4.4
2014-Dec-21 09:49 037 1 -4.4
2014-Dec-21 09:34 037 1 -3.9
2014-Dec-21 09:19 037 2 -3.9
2014-Dec-21 09:04 037 2 -4.4
2014-Dec-21 08:49 037 1 -5.0
2014-Dec-21 08:34 037 2 -5.0
2014-Dec-21 08:19 037 2 -5.6
2014-Dec-21 08:04 037 1 -5.0
2014-Dec-21 07:49 037 1 -5.6
2014-Dec-21 07:34 037 -5.0
2014-Dec-21 07:19 037 1 -5.0
2014-Dec-21 07:04 037 0 -4.4
2014-Dec-21 06:48 037 -4.4
2014-Dec-21 06:33 037 -4.4
2014-Dec-21 06:18 037 0 -4.4
2014-Dec-21 06:03 037 0 -5.0
2014-Dec-21 05:48 037 0 -5.0
2014-Dec-21 05:33 037 1 -5.0
2014-Dec-21 05:18 037 2 -5.0
2014-Dec-21 05:03 037 2 -5.0
2014-Dec-21 04:48 037 2 -4.4
2014-Dec-21 04:33 037 -3.9
2014-Dec-21 04:18 037 2 -3.9
2014-Dec-21 04:03 037 -4.4
2014-Dec-21 03:48 037 -4.4
2014-Dec-21 03:33 037 2 -3.3
2014-Dec-21 03:18 037 1 -2.8
2014-Dec-21 03:03 037 2 -2.8
2014-Dec-21 02:48 037 -2.8
2014-Dec-21 02:33 037 -3.3
2014-Dec-21 02:18 037 -3.9
2014-Dec-21 02:03 037 -3.3
2014-Dec-21 01:48 037 -3.3
2014-Dec-21 01:33 037 2 -3.3
2014-Dec-21 01:18 037 2 -3.3
2014-Dec-21 01:03 037 4 -3.3
2014-Dec-21 00:48 037 4 -3.3
2014-Dec-21 00:33 037 4 -3.3
2014-Dec-21 00:18 037 5 -3.3
2014-Dec-21 00:03 037 5 -3.3
2014-Dec-20 23:48 037 5 -3.3
2014-Dec-20 23:32 037 4 -3.3
2014-Dec-20 23:17 037 1 -3.3
2014-Dec-20 23:02 037 3 -3.3
2014-Dec-20 22:47 037 3 -3.3
2014-Dec-20 22:32 037 4 -3.3
2014-Dec-20 22:17 037 2 -3.3
2014-Dec-20 22:02 037 -4.4
2014-Dec-20 21:47 037 -4.4
2014-Dec-20 21:32 037 0 -4.4
2014-Dec-20 21:17 037 2 -5.0
2014-Dec-20 21:02 036 3 -4.4
2014-Dec-20 20:47 037 -3.9
2014-Dec-20 20:32 036 1 -3.9
2014-Dec-20 20:17 036 -3.9
2014-Dec-20 20:02 037 -3.9
2014-Dec-20 19:47 037 0 -3.3
2014-Dec-20 19:32 037 -5.0
2014-Dec-20 19:17 037 -3.9
2014-Dec-20 19:02 037 -2.8
2014-Dec-20 18:47 037 0 -3.3
2014-Dec-20 18:32 037 3 -1.7
2014-Dec-20 18:17 347 2 -2.2
2014-Dec-20 18:02 345 1 -2.8
2014-Dec-20 17:47 341 1 -2.2
2014-Dec-20 17:32 340 4 -1.7
2014-Dec-20 17:17 013 2 -2.8
2014-Dec-20 17:02 013 -2.2
2014-Dec-20 16:47 013 -1.7
2014-Dec-20 16:32 013 -1.7
2014-Dec-20 16:17 013 -1.7
2014-Dec-20 16:02 032 1 -2.2
2014-Dec-20 15:47 085 -1.7
2014-Dec-20 15:32 085 -1.7
2014-Dec-20 15:17 085 -1.7
2014-Dec-20 15:02 085 -2.2
2014-Dec-20 14:47 085 -1.7
2014-Dec-20 14:32 084 -1.7
2014-Dec-20 14:17 085 -1.7
2014-Dec-20 14:02 085 -1.7
2014-Dec-20 13:47 084 -2.2
2014-Dec-20 13:32 084 -1.7
2014-Dec-20 13:17 084 -2.2
2014-Dec-20 13:02 085 0 -2.2
2014-Dec-20 12:46 085 -2.8
2014-Dec-20 12:31 085 -2.8
2014-Dec-20 12:16 085 0 -2.2
2014-Dec-20 12:01 085 -2.2
2014-Dec-20 11:46 085 -2.8
2014-Dec-20 11:31 083 1 -2.2
2014-Dec-20 11:16 081 0 -2.2
2014-Dec-20 11:01 080 -2.2
2014-Dec-20 10:46 080 -2.8
2014-Dec-20 10:31 080 -3.3
2014-Dec-20 10:16 080 -3.3
2014-Dec-20 10:01 081 -3.9
2014-Dec-20 09:46 081 -4.4
2014-Dec-20 09:31 081 0 -3.9
2014-Dec-20 09:16 081 2 -4.4
2014-Dec-20 09:01 081 3 -5.0
2014-Dec-20 08:46 081 2 -5.6
2014-Dec-20 08:31 080 2 -5.0
2014-Dec-20 08:16 081 3 -5.0
2014-Dec-20 08:01 081 3 -5.0
2014-Dec-20 07:46 080 1 -5.0
2014-Dec-20 07:31 081 1 -4.4
2014-Dec-20 07:16 080 -5.0
2014-Dec-20 07:01 081 0 -5.0
2014-Dec-20 06:46 080 2 -4.4
2014-Dec-20 06:31 080 2 -4.4
2014-Dec-20 06:16 081 2 -3.9
2014-Dec-20 06:01 080 0 -3.3
2014-Dec-20 05:46 081 -3.3
2014-Dec-20 05:31 081 -3.3
2014-Dec-20 05:16 081 -2.8
2014-Dec-20 05:01 081 -2.8
2014-Dec-20 04:46 080 -2.2
2014-Dec-20 04:31 081 -2.2
2014-Dec-20 04:16 080 -2.2
2014-Dec-20 04:01 080 -2.2
2014-Dec-20 03:46 081 -2.2
2014-Dec-20 03:31 081 0 -2.2
2014-Dec-20 03:16 081 -2.2
2014-Dec-20 03:01 081 0 -2.2
2014-Dec-20 02:46 081 2 -2.2
2014-Dec-20 02:31 081 2 -2.2
2014-Dec-20 02:16 080 3 -1.7
2014-Dec-20 02:01 081 2 -2.2